カタログに戻る

ATLAS 5 CENTAUR DEB

運用中HEO
NORAD 44009·DEBRIS·🇺🇸 United States

打ち上げ Sep 17, 2014 から Cape Canaveral Space Force Station

Loading…

次のパス (今後24時間)

TLE

最新Source: Space-Track

元期: Sep 9, 2026, 05:13 UTC

1 44009U 14055BQ  26252.21766967 -.00000163  00000-0  00000-0 0  9994
2 44009  20.9421  98.8166 4985825 248.7607  52.2548  1.91632824 55563

AllMySatでATLAS 5 CENTAUR DEBをリアルタイム追跡

Download on the App Store